Change the Weather History Date:

Monday, April 7, 2014

  Actual Average (KBKW) Record (KBKW)
Temperature  
Mean Temperature 57 °F 50 °F  
Max Temperature 67 °F 60 °F 82 °F (2010)
Min Temperature 47 °F 39 °F 14 °F (1982)
Degree Days  
Heating Degree Days 8 16  
Month to date heating degree days 117  
Since 1 July heating degree days 4830  
Cooling Degree Days 0 0  
Month to date cooling degree days 0  
Year to date cooling degree days 1  
Growing Degree Days 7 (Base 50)    
Moisture  
Dew Point 50 °F    
Average Humidity 80    
Maximum Humidity 99    
Minimum Humidity 50    
Precipitation  
Precipitation 0.00 in 0.11 in 1.23 in (1972)
Month to date precipitation 0.74  
Year to date precipitation 9.88  
Snow  
Snow 0.00 in - - ()
Month to date snowfall  
Since 1 September snowfall  
Snow Depth -    
Sea Level Pressure  
Sea Level Pressure 29.78 in    
Wind  
Wind Speed - (North)    
Max Wind Speed -    
Max Gust Speed -    
Visibility 9 miles    
Events Rain    
T = Trace of Precipitation, MM = Missing Value Source: NWS Daily Summary

Daily Weather History Graph

Daily Weather History Graph

Search for Another Location

Airport or City:

Trip Planner

Search our weather history database for the weather conditions in past years. The results will help you decide how hot, cold, wet, or windy it might be!

Date:

Astronomy

Apr. 07, 2014 Rise Set
Actual Time 7:02 AM EDT 7:54 PM EDT
Civil Twilight 6:36 AM EDT 8:21 PM EDT
Nautical Twilight 6:04 AM EDT 8:52 PM EDT
Astronomical Twilight 5:32 AM EDT 9:25 PM EDT
Moon 1:00 PM EDT (4/7) 2:27 AM EDT (4/7)
Length of Visible Light 13h 44m
Length of Day
12h 51m
First Quarter, 53% of the Moon is Illuminated
Apr 7
First Quarter
Apr 15
Full
Apr 22
Last Quarter
Apr 29
New
May 6
First Quarter

Hourly Weather History & Observations

Time (EDT) Temp. Dew Point Humidity Pressure Visibility Wind Dir Wind Speed Gust Speed Precip Events Conditions
12:15 AM 56.3 °F 37.8 °F 50% 30.05 in 10.0 mi North - - N/A   Overcast
12:35 AM 55.9 °F 37.4 °F 50% 30.06 in 10.0 mi North - - N/A   Overcast
12:55 AM 55.6 °F 37.4 °F 50% 30.05 in 10.0 mi North - - N/A   Overcast
1:15 AM 55.4 °F 37.6 °F 51% 30.04 in 10.0 mi North - - N/A   Mostly Cloudy
1:35 AM 55.0 °F 37.8 °F 52% 30.04 in 10.0 mi North - - N/A   Mostly Cloudy
1:55 AM 54.3 °F 39.9 °F 58% 30.06 in 10.0 mi North - - N/A Rain Light Rain
2:15 AM 50.4 °F 45.7 °F 84% 30.05 in 10.0 mi North - - N/A Rain Light Rain
2:35 AM 49.3 °F 45.5 °F 87% 30.05 in 5.0 mi North - - N/A Rain Rain
2:55 AM 48.2 °F 46.6 °F 94% 30.03 in 5.0 mi North - - N/A Rain Light Rain
3:15 AM 48.2 °F 46.4 °F 93% 30.01 in 7.0 mi North - - N/A Rain Light Rain
3:35 AM 47.7 °F 45.9 °F 93% 30.01 in 7.0 mi North - - N/A Rain Light Rain
3:55 AM 47.5 °F 45.9 °F 94% 29.99 in 7.0 mi North - - N/A Rain Rain
4:15 AM 47.5 °F 45.9 °F 94% 29.97 in 7.0 mi North - - N/A Rain Rain
4:35 AM 47.3 °F 45.7 °F 94% 29.96 in 10.0 mi North - - N/A Rain Rain
4:55 AM 47.3 °F 45.7 °F 94% 29.95 in 10.0 mi North - - N/A   Light Drizzle
5:15 AM 47.5 °F 45.9 °F 94% 29.93 in 10.0 mi North - - N/A   Overcast
5:35 AM 47.8 °F 46.0 °F 93% 29.93 in 10.0 mi North - - N/A   Overcast
5:55 AM 48.2 °F 46.0 °F 92% 29.93 in 10.0 mi North - - N/A   Drizzle
6:15 AM 48.2 °F 46.2 °F 93% 29.94 in 10.0 mi North - - N/A   Drizzle
6:35 AM 48.4 °F 46.6 °F 93% 29.94 in 5.0 mi North - - N/A Rain Light Rain
6:55 AM 48.2 °F 46.8 °F 95% 29.93 in 10.0 mi North - - N/A Rain Rain
7:15 AM 48.2 °F 46.9 °F 95% 29.91 in 4.0 mi North - - N/A Rain Rain
7:35 AM 48.2 °F 47.3 °F 97% 29.90 in 5.0 mi North - - N/A Rain Light Rain
8:15 AM 49.3 °F 48.9 °F 99% 29.90 in 4.0 mi North - - N/A Rain Rain
8:35 AM 50.0 °F 49.3 °F 97% 29.90 in 5.0 mi North - - N/A Rain Light Rain
8:55 AM 50.2 °F 49.6 °F 98% 29.90 in 10.0 mi North - - N/A   Overcast
9:15 AM 50.4 °F 49.5 °F 97% 29.83 in 10.0 mi North - - N/A Rain Light Rain
9:35 AM 51.1 °F 50.2 °F 97% 29.82 in 10.0 mi North - - N/A   Light Drizzle
9:55 AM 52.0 °F 50.9 °F 96% 29.82 in 10.0 mi North - - N/A   Clear
10:15 AM 52.7 °F 51.6 °F 96% 29.80 in 10.0 mi North - - N/A   Clear
10:35 AM 54.7 °F 52.5 °F 92% 29.80 in 10.0 mi North - - N/A   Clear
10:55 AM 54.9 °F 52.9 °F 93% 29.79 in 10.0 mi North - - N/A   Clear
11:15 AM 56.5 °F 53.1 °F 88% 29.81 in 10.0 mi North - - N/A   Clear
11:55 AM 57.7 °F 52.2 °F 82% 29.80 in 10.0 mi North - - N/A   Clear
12:15 PM 57.6 °F 51.6 °F 81% 29.77 in 10.0 mi North - - N/A   Scattered Clouds
12:35 PM 58.1 °F 52.2 °F 81% 29.76 in 10.0 mi North - - N/A   Scattered Clouds
12:55 PM 58.6 °F 52.3 °F 80% 29.75 in 10.0 mi North - - N/A   Clear
1:15 PM 59.9 °F 52.7 °F 77% 29.74 in 10.0 mi North - - N/A   Clear
1:35 PM 60.1 °F 52.0 °F 75% 29.73 in 10.0 mi North - - N/A   Scattered Clouds
1:55 PM 60.8 °F 52.0 °F 73% 29.71 in 10.0 mi North - - N/A   Mostly Cloudy
2:15 PM 61.0 °F 51.8 °F 72% 29.72 in 10.0 mi North - - N/A   Mostly Cloudy
2:35 PM 62.1 °F 52.0 °F 70% 29.71 in 10.0 mi North - - N/A   Overcast
2:55 PM 62.6 °F 52.2 °F 69% 29.69 in 10.0 mi North - - N/A   Overcast
3:15 PM 63.0 °F 52.3 °F 68% 29.66 in 10.0 mi North - - N/A   Overcast
3:35 PM 63.5 °F 52.0 °F 66% 29.65 in 10.0 mi North - - N/A   Scattered Clouds
3:55 PM 63.1 °F 51.8 °F 66% 29.64 in 10.0 mi North - - N/A   Clear
4:35 PM 62.6 °F 52.0 °F 68% 29.61 in 10.0 mi North - - N/A   Clear
4:55 PM 63.7 °F 52.7 °F 67% 29.61 in 10.0 mi North - - N/A   Clear
5:15 PM 65.5 °F 53.4 °F 65% 29.60 in 10.0 mi North - - N/A   Clear
5:35 PM 66.4 °F 53.6 °F 63% 29.60 in 10.0 mi North - - N/A   Clear
5:55 PM 66.2 °F 53.8 °F 64% 29.60 in 10.0 mi North - - N/A   Mostly Cloudy
6:15 PM 65.7 °F 54.7 °F 68% 29.58 in 10.0 mi North - - N/A   Overcast
6:35 PM 65.7 °F 55.4 °F 69% 29.57 in 10.0 mi North - - N/A   Overcast
6:55 PM 66.2 °F 56.8 °F 72% 29.57 in 10.0 mi North - - N/A   Overcast
7:15 PM 67.6 °F 55.9 °F 66% 29.56 in 10.0 mi North - - N/A   Mostly Cloudy
7:35 PM 66.4 °F 56.1 °F 69% 29.56 in 10.0 mi North - - N/A   Clear
7:55 PM 64.0 °F 56.3 °F 76% 29.56 in 10.0 mi North - - N/A   Scattered Clouds
8:15 PM 64.9 °F 56.3 °F 74% 29.56 in 10.0 mi North - - N/A   Mostly Cloudy
8:35 PM 60.3 °F 56.3 °F 87% 29.56 in 10.0 mi North - - N/A   Mostly Cloudy
8:55 PM 59.5 °F 56.3 °F 89% 29.56 in 10.0 mi North - - N/A   Mostly Cloudy
9:15 PM 59.9 °F 56.3 °F 88% 29.58 in 10.0 mi North - - N/A   Mostly Cloudy
9:35 PM 60.8 °F 56.3 °F 85% 29.58 in 10.0 mi North - - N/A   Mostly Cloudy
9:55 PM 60.1 °F 56.5 °F 88% 29.59 in 10.0 mi North - - N/A   Mostly Cloudy
10:15 PM 60.8 °F 56.7 °F 86% 29.59 in 10.0 mi North - - N/A   Overcast
10:35 PM 65.5 °F 56.5 °F 73% 29.59 in 10.0 mi North - - N/A   Overcast
10:55 PM 66.7 °F 55.8 °F 68% 29.59 in 10.0 mi North - - N/A   Overcast
11:15 PM 66.4 °F 55.2 °F 67% 29.59 in 10.0 mi North - - N/A   Mostly Cloudy
11:35 PM 65.7 °F 54.1 °F 66% 29.60 in 10.0 mi North - - N/A   Scattered Clouds
11:55 PM 65.7 °F 54.1 °F 66% 29.60 in 10.0 mi North - - N/A   Mostly Cloudy